Content
SEND FEEDBACK

Daily
Averages
Monthly
Summary
Philippines

MANILA, PHILIPPINES


Home > Asia > Philippines
Elevation: 49 feet     Latitude: 14 31N     Longitude: 121 00E

WEATHER
 
SELECT A DAY
Number of Records: 172,573;   Date Range: 7/1/96 - 8/12/14
 
SHARE

PRINT THIS DATA

[ ← Previous Day ]
WEATHER ALMANAC - OCTOBER 29, 2013
[ Next Day → ]
[ °C ]   °F
Weather ElementAverageHighLow
Temperature81.8 °F86 °F (12:00 pm)75.2 °F (6:00 am)
Dewpoint71.8 °F73.4 °F (1:00 am)69.8 °F (8:00 am)
Humidity71.3 %94 % (6:00 am)55 % (2:00 pm)
Barometer29.90 in29.95 in (7:00 am)29.83 in (2:00 pm)
Wind Speed4.3 mph6.7 mph (5:00 pm)
Weather ElementAverage
Visibility5.9 mi
Wind DirectionESE (98.9 °)

Weather ElementTotal
Precipitation---
Cooling Degree Days15.6 (Base 65)
Growing Degree Days30.6 (Base 50)
Averaged from 28 records on October 29, 2013
WEATHER CONDITIONS BREAKOUT
WIND DIRECTION BREAKOUT
WEATHER BY HOUR - OCTOBER 29, 2013
[ °C ]   °F
Local TimeTemperatureDewpointHumidityBarometerVisibilityWind DirectionWind SpeedGust SpeedPrecipitationEventsConditions
1:00 AM78.8 °F73.4 °F83 %29.92 in6.2 miENE (70°)3.5 mphPartly Cloudy
2:00 AM78.0 °F73.0 °F82 %29.91 in6.0 miEast (80°)4.5 mphHaze
2:00 AM78.8 °F73.4 °F83 %29.89 in6.2 miEast (80°)4.6 mphPartly Cloudy
3:00 AM77.0 °F73.4 °F89 %29.89 in6.2 miEast (80°)2.3 mphPartly Cloudy
4:00 AM77.0 °F73.4 °F89 %29.89 in6.2 miCalmPartly Cloudy
5:00 AM77.0 °F73.4 °F89 %29.89 in6.2 miEast (80°)4.6 mphPartly Cloudy
6:00 AM75.2 °F73.4 °F94 %29.92 in3.1 miVariable2.3 mphPartly Cloudy
7:00 AM78.8 °F73.4 °F83 %29.95 in3.7 miEast (90°)3.5 mphScattered Clouds
8:00 AM80.0 °F70.0 °F64 %29.95 in6.0 miESE (110°)4.5 mphHaze
8:00 AM82.4 °F69.8 °F66 %29.95 in6.2 miESE (120°)3.5 mphScattered Clouds
9:00 AM84.2 °F69.8 °F62 %29.95 in6.2 miSE (130°)4.6 mphScattered Clouds
10:00 AM84.2 °F71.6 °F66 %29.95 in6.2 miVariable3.5 mphScattered Clouds
11:00 AM83.0 °F73.0 °F65 %29.93 in6.0 miWest (260°)4.5 mphHaze
11:00 AM84.2 °F73.4 °F70 %29.92 in6.2 miWest (260°)5.8 mphScattered Clouds
12:00 PM86.0 °F71.6 °F62 %29.89 in6.2 miVariable5.8 mphScattered Clouds
1:00 PM84.2 °F71.6 °F66 %29.86 in6.2 miWSW (250°)5.8 mphScattered Clouds
2:00 PM86.0 °F72.0 °F55 %29.85 in6.0 miSE (140°)4.5 mphHaze
2:00 PM86.0 °F71.6 °F62 %29.83 inNorthScattered Clouds
3:00 PM86.0 °F71.6 °F62 %29.83 inNorthMostly Cloudy
4:00 PM86.0 °F69.8 °F58 %29.83 in6.2 miSSE (160°)5.8 mphPartly Cloudy
5:00 PM86.0 °F71.6 °F62 %29.83 in6.2 miSE (130°)5.8 mphPartly Cloudy
5:00 PM85.0 °F71.0 °F55 %29.83 in6.0 miSE (130°)6.7 mphHaze
6:00 PM82.4 °F71.6 °F70 %29.86 in6.2 miESE (120°)5.8 mphScattered Clouds
7:00 PM82.4 °F69.8 °F66 %29.89 in6.2 miESE (110°)4.6 mphPartly Cloudy
8:00 PM80.6 °F69.8 °F70 %29.89 in6.2 miESE (120°)3.5 mphPartly Cloudy
9:00 PM80.6 °F69.8 °F70 %29.92 in6.2 miSE (130°)4.6 mphPartly Cloudy
10:00 PM78.8 °F71.6 °F78 %29.92 in6.2 miVariable3.5 mphPartly Cloudy
11:00 PM80.6 °F71.6 °F74 %29.92 in6.2 miESE (120°)4.6 mphMostly Cloudy
Hourly data recorded from RPLL, located miles away from Manila, Philippines







STORIES FROM OUR PARTNERS